Wind_Speed
16 16 16 15 15 14 13 13 14 15 19 21 21 24 26 28 30 30 30 31 32 32 32 30 28 27 24 23 21 21 21 21 22 22 23 24 25 26 27 27 27 27 28 30
11 11 13 14 15 17 17 16 17 18 20 21 22 26 29 30 30 30 30 32 30 30 30 28 27 26 25 24 24 23 23 24 25 25 26 27 27 28 29 29 29 30 31 32
11 11 12 15 18 20 20 18 17 17 19 21 23 27 29 30 32 31 31 32 30 28 26 26 25 25 25 26 26 25 25 25 27 28 29 30 30 29 30 31 32 33 33 33
10 12 13 15 17 18 18 19 17 17 18 20 23 25 27 28 31 31 30 30 28 25 25 24 25 26 27 27 27 27 27 27 28 30 30 31 32 33 33 33 33 33 33 34
8 10 11 13 14 15 15 17 18 18 18 17 19 22 23 25 28 29 28 28 28 27 26 25 25 26 27 28 28 28 27 28 29 31 32 33 35 36 36 36 35 35 34 34
10 10 11 12 13 16 16 16 18 17 17 20 21 23 24 26 27 26 25 26 26 26 25 25 25 26 28 28 29 30 29 30 32 34 35 36 38 39 39 40 38 37 37 37
7 8 9 12 14 16 17 16 14 15 18 19 18 22 27 25 25 24 23 23 24 24 24 25 25 26 27 28 29 30 31 33 34 37 38 39 40 41 42 42 41 40 39 39
7 9 9 12 14 14 17 19 17 15 16 18 20 28 29 26 23 20 20 22 22 23 23 24 24 25 27 28 29 30 32 34 35 37 39 40 40 41 42 42 42 41 41 41
6 6 8 10 13 14 14 18 16 17 18 19 23 29 30 26 26 23 21 22 22 22 23 23 24 26 27 28 29 30 32 33 35 37 38 39 40 41 42 42 42 42 43 43
3 6 7 9 12 14 13 14 16 16 16 18 22 25 26 26 24 25 24 23 23 24 24 25 26 27 28 29 30 31 32 34 36 37 39 40 41 42 43 43 44 44 45 45
3 5 8 8 11 13 15 15 16 14 14 16 18 21 24 24 23 22 23 24 25 26 27 27 28 30 31 32 33 34 35 36 37 38 40 41 42 43 43 44 45 46 45 46
6 9 11 11 11 12 13 14 15 18 17 16 19 19 18 18 19 20 20 22 24 25 27 28 29 31 32 33 35 36 37 38 39 40 41 41 42 43 44 44 45 45 45 46
8 7 9 9 11 12 12 14 15 17 17 19 22 22 21 16 16 18 19 21 23 25 26 28 29 30 32 33 35 36 37 38 39 40 40 41 41 42 43 44 44 45 46 46
6 6 8 10 12 10 10 11 14 17 20 23 25 23 21 19 18 19 20 21 23 25 26 28 29 31 33 34 34 36 36 36 37 37 38 39 40 41 42 43 44 44 45 45
4 3 4 5 8 9 9 11 14 17 20 24 25 25 23 21 22 22 22 23 25 26 27 28 30 32 33 33 34 34 35 36 36 37 38 38 39 40 41 41 42 43 43 44
2 1 1 1 1 4 5 8 12 14 17 21 24 23 23 24 24 23 23 24 24 26 27 28 30 31 31 31 32 33 34 35 35 36 36 37 38 38 38 39 39 39 40 40
1 1 2 2 4 5 7 9 13 14 17 20 22 23 24 24 24 24 24 24 25 26 26 26 27 28 28 29 30 30 31 32 33 33 33 34 34 34 35 35 35 36 37 38
0 0 0 2 5 8 9 11 14 15 17 19 20 22 23 24 24 24 23 23 24 24 24 24 25 26 26 26 27 28 29 29 29 29 29 29 29 30 31 32 32 33 34 35
2 2 2 3 6 10 11 13 15 16 16 17 19 20 21 21 22 22 22 23 23 23 23 24 23 24 24 24 25 25 25 26 26 26 26 26 27 27 28 29 30 30 31 31
3 3 3 5 7 11 12 13 14 15 15 16 17 19 19 20 20 20 20 21 22 22 22 23 23 23 24 23 23 24 24 23 23 23 24 24 25 25 26 26 27 27 27 28
3 4 5 6 9 10 12 13 14 15 15 16 17 18 19 19 18 18 18 18 19 19 20 21 22 22 22 22 22 22 21 21 21 22 22 23 23 23 23 24 24 24 24 24
4 5 6 7 9 10 13 14 14 15 15 16 16 16 17 17 17 17 17 17 17 18 18 19 19 19 19 19 19 19 19 19 20 20 20 20 21 21 21 21 20 20 20 21
4 6 7 8 9 11 12 13 14 14 14 15 15 15 15 15 16 15 15 15 15 16 16 16 16 17 17 17 17 17 18 18 18 18 18 19 19 18 18 18 17 17 17 17
4 6 8 9 10 12 13 13 14 14 15 15 15 15 15 15 14 14 14 14 13 14 14 15 15 15 16 16 16 16 16 16 17 17 17 17 17 16 16 15 15 15 15 15
4 7 8 10 11 12 13 14 14 15 15 15 15 15 14 13 12 12 12 12 12 13 14 15 15 15 15 15 15 15 15 15 15 15 16 15 15 14 14 13 13 12 13 13
4 7 9 10 12 13 14 15 15 15 15 15 15 15 13 13 12 12 12 12 13 14 15 15 14 14 14 14 14 14 14 14 13 13 13 13 13 12 12 11 10 10 10 10
Wind_Direction
255 246 238 232 226 210 202 216 222 215 221 224 220 213 214 221 224 228 230 234 238 234 239 240 236 239 240 241 244 248 252 256 258 261 263 265 267 268 270 272 274 277 278 276
253 251 236 224 217 214 203 200 203 205 213 213 213 214 217 220 222 227 231 234 238 239 236 235 236 237 237 240 245 248 253 255 258 260 261 264 265 267 270 272 275 278 279 281
243 234 229 221 217 216 206 198 199 208 214 213 212 218 220 223 226 229 236 240 242 236 234 233 234 238 241 243 246 251 253 257 260 263 264 265 266 269 273 274 278 281 282 281
245 233 229 225 219 213 208 202 201 212 218 216 214 221 224 228 232 235 239 243 246 245 243 239 238 242 243 244 246 249 254 258 261 265 267 270 273 273 276 279 281 284 286 285
232 237 233 226 213 204 201 204 210 210 207 213 216 225 231 230 236 237 242 245 246 247 247 244 243 247 249 250 251 253 256 261 265 269 272 274 277 279 280 280 282 284 288 289
220 222 221 216 206 204 198 199 208 211 210 221 216 220 239 239 237 236 239 242 244 244 247 247 250 251 253 255 257 260 261 263 268 274 276 276 279 282 282 285 287 289 291 293
224 219 216 206 201 203 196 190 198 211 216 224 232 232 237 240 239 241 239 240 243 243 246 249 251 253 256 258 261 265 267 268 270 273 275 277 279 281 284 288 289 290 291 293
226 217 213 207 193 199 195 180 192 208 218 228 230 236 242 244 246 242 242 243 245 247 249 251 251 254 257 260 263 264 266 268 271 273 275 277 281 282 284 287 289 291 293 294
232 189 203 200 187 182 192 185 199 218 220 224 230 232 241 247 248 249 246 247 248 250 252 254 256 258 260 262 265 267 268 269 271 273 276 279 281 282 284 287 289 291 293 294
227 162 174 182 182 178 188 202 220 230 236 240 243 243 243 246 242 245 247 247 249 251 253 255 257 260 262 264 267 269 271 272 274 276 277 279 281 283 285 286 288 289 291 292
200 155 163 177 186 192 193 204 219 237 251 255 258 256 248 240 236 238 241 245 248 250 253 256 258 259 262 264 267 270 272 273 274 275 276 277 279 281 282 284 286 287 289 290
193 177 175 182 187 189 203 208 220 232 245 264 277 277 271 252 244 245 247 249 250 252 255 259 261 262 263 265 267 269 271 273 274 275 276 277 279 280 282 283 285 287 287 288
193 182 176 183 191 194 209 213 220 235 247 259 270 277 279 267 262 258 255 255 257 257 260 263 265 266 267 268 269 271 273 274 274 275 276 277 278 280 281 282 284 285 285 286
218 194 192 198 190 195 210 224 232 237 244 252 261 272 274 280 277 273 270 268 267 265 266 268 269 270 271 272 273 273 274 275 275 276 277 278 279 280 281 283 284 285 286 287
240 238 214 195 191 195 214 231 243 245 246 251 260 270 277 283 283 279 276 276 274 273 271 270 271 272 273 274 274 275 275 276 276 276 277 278 280 281 282 283 284 286 287 288
268 298 47 31 202 209 235 250 256 258 256 260 266 274 279 284 284 283 282 280 278 276 274 273 273 273 272 273 274 275 275 276 277 277 279 280 281 283 283 285 287 288 290 291
319 5 28 5 298 284 284 282 277 275 270 271 274 279 285 288 286 285 284 282 281 279 278 277 276 275 276 277 277 276 276 277 278 279 280 282 283 284 286 288 289 292 294 296
5 151 287 318 305 296 294 293 291 287 282 279 281 283 287 287 285 285 284 283 281 282 282 282 280 277 276 277 279 280 280 281 282 282 284 285 286 288 289 291 294 296 297 298
1 357 352 324 294 300 304 301 300 297 292 287 289 290 291 290 288 287 286 284 284 283 282 281 280 280 280 282 283 284 284 285 286 286 287 289 290 291 293 295 297 299 300 301
0 342 328 320 305 300 309 309 309 306 304 300 299 297 295 294 292 291 288 286 286 283 281 280 282 282 283 284 286 288 290 289 289 290 292 293 294 295 296 298 300 302 303 304
349 343 333 321 314 316 316 318 316 314 312 309 306 302 300 300 298 295 293 291 290 289 288 286 286 287 287 288 289 290 290 290 291 292 294 295 296 297 298 300 302 304 305 307
352 343 338 334 330 328 326 325 323 320 318 317 315 312 309 306 304 303 301 299 298 295 293 292 291 290 289 290 291 291 291 291 292 293 295 297 298 299 301 303 304 306 308 312
346 349 350 347 341 337 335 333 331 330 327 325 323 321 318 316 314 312 310 308 304 300 297 295 295 294 294 293 293 292 292 292 293 295 297 298 299 300 302 303 305 308 311 315
359 355 354 351 349 346 343 341 340 337 334 331 328 326 325 324 321 317 315 315 312 309 306 303 300 299 299 297 295 295 295 295 296 296 297 298 298 300 302 304 307 309 312 317
6 360 358 356 354 353 352 349 347 346 344 342 340 337 336 334 330 328 326 324 321 318 315 310 305 303 302 302 302 302 302 300 299 298 298 299 300 302 303 304 307 311 315 319
6 4 2 2 2 1 360 357 355 354 352 350 348 348 346 343 340 338 335 332 329 327 324 319 313 310 308 307 306 305 303 302 303 303 303 302 302 303 303 305 308 313 319 325
Height
5773 5776 5778 5781 5785 5788 5791 5797 5802 5806 5807 5809 5811 5814 5818 5821 5823 5825 5827 5829 5826 5827 5830 5831 5833 5837 5842 5844 5846 5847 5849 5851 5853 5854 5856 5857 5858 5858 5858 5858 5859 5859 5859 5858
5770 5773 5775 5778 5782 5785 5788 5793 5798 5801 5803 5805 5808 5811 5814 5815 5817 5820 5821 5822 5822 5821 5824 5826 5828 5833 5836 5839 5841 5843 5845 5847 5848 5849 5850 5851 5852 5852 5852 5852 5853 5853 5852 5851
5767 5771 5772 5774 5777 5781 5784 5789 5793 5797 5799 5801 5805 5807 5810 5811 5812 5815 5817 5818 5818 5813 5816 5820 5825 5829 5832 5835 5837 5839 5840 5842 5843 5844 5844 5845 5845 5846 5846 5846 5847 5846 5844 5844
5765 5767 5768 5770 5774 5777 5782 5786 5790 5793 5796 5798 5802 5804 5806 5807 5808 5810 5812 5814 5814 5814 5816 5818 5821 5825 5827 5830 5832 5834 5835 5837 5838 5839 5839 5839 5840 5840 5840 5840 5840 5838 5837 5837
5763 5765 5766 5769 5772 5775 5780 5784 5787 5789 5793 5796 5799 5801 5801 5802 5803 5805 5807 5809 5811 5812 5814 5815 5818 5821 5823 5825 5827 5828 5830 5831 5832 5833 5833 5833 5833 5833 5833 5832 5831 5831 5830 5829
5760 5762 5764 5767 5770 5773 5776 5781 5785 5787 5791 5793 5794 5797 5797 5797 5798 5800 5803 5805 5807 5809 5811 5812 5815 5817 5819 5821 5822 5823 5824 5826 5827 5827 5827 5827 5827 5826 5825 5825 5824 5824 5822 5822
5759 5761 5762 5764 5768 5771 5774 5780 5784 5787 5789 5791 5793 5792 5791 5791 5793 5795 5799 5801 5803 5804 5807 5809 5811 5813 5815 5816 5817 5818 5819 5820 5821 5821 5821 5821 5820 5819 5818 5817 5817 5817 5815 5814
5756 5759 5761 5763 5766 5770 5773 5778 5784 5787 5790 5791 5791 5788 5787 5788 5790 5793 5796 5798 5800 5801 5803 5805 5806 5808 5809 5811 5812 5813 5813 5814 5814 5815 5815 5814 5813 5812 5811 5810 5809 5808 5807 5806
5755 5757 5760 5762 5765 5769 5774 5776 5780 5783 5784 5785 5785 5783 5783 5785 5787 5790 5792 5794 5795 5797 5798 5799 5801 5802 5804 5805 5805 5806 5806 5807 5807 5807 5807 5806 5806 5805 5803 5802 5801 5799 5798 5796
5755 5757 5760 5762 5766 5769 5773 5777 5778 5779 5779 5780 5780 5779 5779 5780 5782 5785 5787 5789 5791 5792 5793 5794 5795 5797 5798 5798 5799 5799 5800 5800 5800 5800 5799 5799 5798 5796 5795 5793 5792 5790 5788 5786
5756 5758 5762 5764 5766 5770 5772 5775 5776 5778 5778 5777 5776 5776 5772 5774 5776 5779 5781 5784 5785 5787 5788 5789 5789 5790 5791 5792 5792 5792 5792 5792 5792 5792 5791 5790 5789 5787 5786 5784 5782 5780 5778 5776
5757 5758 5760 5763 5766 5769 5772 5773 5775 5776 5775 5774 5771 5771 5766 5766 5770 5774 5777 5779 5780 5781 5782 5783 5783 5784 5784 5785 5785 5785 5785 5784 5784 5783 5782 5781 5779 5778 5776 5774 5772 5770 5768 5766
5758 5758 5760 5762 5767 5768 5770 5772 5773 5773 5773 5772 5769 5768 5764 5763 5766 5770 5772 5773 5774 5775 5776 5776 5776 5776 5777 5777 5777 5776 5776 5775 5774 5773 5772 5771 5769 5768 5766 5764 5762 5760 5758 5755
5758 5757 5759 5761 5762 5765 5767 5770 5771 5771 5770 5768 5766 5764 5763 5762 5764 5766 5767 5768 5768 5769 5769 5769 5769 5768 5768 5768 5767 5767 5766 5765 5764 5763 5762 5761 5759 5758 5756 5754 5752 5750 5748 5745
5758 5758 5759 5760 5761 5763 5765 5767 5767 5767 5766 5765 5763 5762 5760 5759 5760 5761 5761 5762 5762 5762 5762 5761 5761 5760 5760 5759 5758 5757 5756 5756 5755 5754 5753 5751 5750 5748 5746 5744 5742 5740 5737 5735
5759 5759 5759 5760 5760 5761 5762 5763 5763 5763 5762 5761 5760 5758 5756 5756 5755 5755 5755 5755 5755 5754 5754 5753 5752 5751 5751 5750 5749 5749 5747 5746 5745 5744 5743 5742 5740 5738 5737 5735 5733 5730 5728 5725
5760 5760 5761 5762 5762 5761 5762 5762 5761 5760 5759 5758 5756 5756 5753 5752 5751 5750 5749 5749 5748 5747 5746 5745 5744 5743 5742 5741 5741 5740 5739 5738 5737 5735 5734 5733 5731 5730 5728 5726 5724 5722 5719 5716
5761 5761 5761 5761 5762 5761 5762 5759 5758 5757 5755 5754 5752 5751 5749 5748 5746 5745 5744 5743 5742 5741 5739 5738 5737 5736 5735 5734 5733 5732 5731 5730 5729 5727 5726 5725 5723 5722 5720 5718 5716 5713 5710 5707
5761 5761 5761 5761 5760 5759 5759 5757 5755 5753 5751 5750 5748 5746 5745 5743 5741 5739 5738 5737 5736 5734 5733 5732 5731 5730 5728 5727 5726 5725 5724 5723 5721 5720 5719 5718 5716 5714 5713 5711 5708 5706 5703 5699
5762 5761 5761 5760 5759 5758 5757 5755 5752 5751 5748 5746 5744 5742 5740 5738 5737 5736 5733 5732 5730 5729 5727 5726 5725 5723 5722 5721 5720 5719 5718 5716 5715 5714 5712 5711 5709 5708 5706 5704 5701 5699 5696 5692
5762 5761 5761 5759 5758 5756 5755 5752 5751 5750 5747 5744 5741 5738 5736 5734 5733 5731 5728 5727 5725 5724 5722 5721 5719 5718 5717 5715 5714 5713 5712 5710 5709 5708 5706 5705 5703 5701 5699 5697 5695 5692 5689 5686
5762 5761 5760 5759 5757 5757 5753 5751 5749 5747 5743 5740 5738 5735 5733 5730 5728 5726 5724 5722 5721 5719 5717 5716 5714 5713 5711 5710 5709 5707 5706 5705 5703 5702 5701 5699 5697 5695 5694 5692 5689 5687 5684 5681
5762 5761 5760 5759 5758 5754 5751 5749 5746 5743 5741 5738 5735 5732 5730 5727 5725 5723 5721 5719 5717 5715 5713 5712 5710 5708 5707 5705 5704 5702 5701 5699 5698 5697 5695 5694 5692 5690 5688 5687 5685 5682 5680 5677
5762 5761 5759 5757 5755 5753 5750 5748 5745 5742 5739 5736 5733 5730 5727 5725 5722 5720 5718 5716 5714 5712 5710 5708 5706 5704 5702 5701 5699 5697 5696 5694 5693 5692 5690 5688 5687 5685 5684 5682 5680 5678 5676 5674
5762 5761 5759 5757 5755 5752 5749 5747 5744 5740 5737 5734 5731 5728 5725 5722 5720 5718 5716 5714 5711 5709 5707 5704 5702 5700 5698 5696 5695 5693 5691 5690 5688 5687 5685 5684 5682 5681 5680 5678 5676 5675 5673 5671
5762 5761 5759 5757 5755 5752 5749 5746 5743 5740 5736 5733 5730 5727 5724 5721 5719 5717 5714 5712 5709 5706 5704 5701 5698 5696 5694 5692 5691 5689 5687 5685 5684 5682 5681 5679 5678 5677 5676 5674 5673 5671 5670 5668